Location: ???????
(55.3754°N, 39.3545°E)
Time: 06:35:02
(UTC+00:00)

Cosmos 407 Rocket - Pass Details

Date: 14 April 2026
Orbit: 740 x 781 km, 74.0° (Epoch: 12 May)

Event Time Altitude Azimuth Distance (km) Brightness Sun altitude
Rises 19:49:13 0° 332° (NNW) 3,221 8.3 -22.1°
Reaches altitude 10° 19:51:39 10° 337° (NNW) 2,286 7.1 -22.3°
Maximum altitude 19:56:45 59° 57° (ENE) 867 3.7 -22.5°
Enters shadow 19:57:59 46° 107° (ESE) 1,005 3.8 -22.6°
